Flag for U.S.A. Weather past 2 weeks in Clovis, New Mexico, U.S.A.

Now
69 °F

Sunny.


Feels Like: 69 °F
Forecast: 66 / 91 °F
Wind: 3 mph from Southwest

Location: Cannon Air Force Base / Clovis

Current Time: Jul 24, 2014 at 7:50:13 AM

Latest Report: Jul 24, 2014 at 6:58 AM


Visibility: 10 mi

Pressure: 30.08 "Hg

Humidity: 73%

Dew point: 60 °F

Location of ClovisLocation

Historic Weather in Clovis — Graph

°F

Clovis temperature yesterday

Maximum temperature yesterday: 91 °F (at 3:58 PM)
Minimum temperature yesterday: 67 °F (at 5:58 AM)
Average temperature yesterday: 80 °F

Past Weeks' High & Low Weather Summary

 TemperatureHumidityPressure
High96 °F (Jul 21, 3:58 PM)100% (Jul 12, 4:58 AM)30.29 "Hg (Jul 12, 4:58 AM)
Low61 °F (Jul 12, 5:58 AM)26% (Jul 23, 2:58 PM)29.73 "Hg (Jul 16, 4:58 PM)
Average75 °F65%29.98 "Hg
* Reported Jul 9 6:58 AM — Jul 24 6:58 AM, Clovis, Weather by CustomWeather, © 2014

Note: Actual official high and low records may vary slightly from our data, if they occured in-between our weather recording intervals... More about our weather records

Advertising

Clovis weather history for previous 24 hours

 ConditionsComfort  
Time TempWeatherWind HumidityBarometerVisibility
6:58 AM
Jul 24
69 °FSunny.3 mph73%30.08 "Hg10 mi
5:58 AM68 °FClear.3 mph74%30.06 "Hg10 mi
4:58 AM68 °FClear.No wind76%30.06 "Hg10 mi
3:58 AM68 °FClear.2 mph73%30.05 "Hg10 mi
2:58 AM69 °FClear.1 mph71%30.06 "Hg10 mi
1:58 AM69 °FClear.2 mph71%30.08 "Hg10 mi
12:58 AM69 °FClear.2 mph72%30.09 "Hg10 mi
11:58 PM
Jul 23
70 °FClear.5 mph71%30.10 "Hg10 mi
10:58 PM72 °FClear.6 mph67%30.28 "Hg10 mi
9:58 PM75 °FClear.6 mph61%30.27 "Hg10 mi
8:58 PM77 °FSunny.6 mph56%30.25 "Hg10 mi
7:58 PM82 °FSunny.6 mph46%30.24 "Hg10 mi
6:58 PM88 °FSunny.8 mph32%30.04 "Hg10 mi
5:58 PM91 °FSunny.7 mph31%30.04 "Hg10 mi
4:58 PM89 °FPassing clouds.7 mph35%30.06 "Hg10 mi
3:58 PM91 °FSunny.8 mph33%30.08 "Hg10 mi
2:58 PM90 °FSunny.7 mph26%30.10 "Hg10 mi
1:58 PM89 °FSunny.5 mph33%30.12 "Hg10 mi
12:58 PM88 °FPassing clouds.8 mph39%30.14 "Hg10 mi
11:58 AM86 °FSunny.5 mph44%30.14 "Hg10 mi
10:58 AM84 °FSunny.3 mph48%30.16 "Hg10 mi
9:58 AM82 °FSunny.7 mph53%30.16 "Hg10 mi
8:58 AM78 °FSunny.6 mph61%30.17 "Hg10 mi
Weather by CustomWeather, © 2014

See weather overviewHow to use our weather pages